カタログに戻る

STARLINK-33626

運用中通信VLEO
NORAD 63369·PAYLOAD·🇺🇸 United States

打ち上げ Mar 26, 2025 から Vandenberg Space Force Base

Loading…

次のパス (今後24時間)

TLE

最新Source: CelesTrak SupGP

元期: Sep 15, 2026, 02:35 UTC

1 63369C 25063G   26258.10812500 -.00028190  00000+0 -83276-3 0  2581
2 63369  53.1576 246.8464 0001255  88.4429 206.7848 15.34408831    11

AllMySatでSTARLINK-33626をリアルタイム追跡

Download on the App Store